Regional Weather Roundup
Issued by NWS State College, PA

Home | Current Version | Previous Version | Text Only | Print | Product List | Glossary On
Versions: 1 2 3 4 5 6 7 8 9 10 11 12 13 14 15 16 17 18 19 20 21 22 23 24 25 26 27 28 29 30 31 32 33 34 35 36 37 38 39 40 41 42 43 44 45 46 47 48 49 50
000
ASUS41 KCTP 221410
RWRCTP

REGIONAL WEATHER ROUNDUP
NATIONAL WEATHER SERVICE STATE COLLEGE PA
1000 AM EDT SAT JUL 22 2017

Note: "fair" indicates few or no clouds below 12,000 feet with no
significant weather and/or obstructions to visibility.

* = STATION THAT DOES NOT REPORT PRECIPITATION /E.G. RAIN...SNOW...ETC/
    THUNDER OR FOG.

PAZ002>004-007>009-013>016-020>023-029>032-221500-
WESTERN PENNSYLVANIA

CITY           SKY/WX    TMP DP  RH WIND       PRES   REMARKS
ERIE           CLOUDY    74  65  73 S8        29.88F
MEADVILLE      CLOUDY    71  70  96 VRB3      29.93F FOG
FRANKLIN*      CLOUDY    72  66  83 S7        29.94F
NEW CASTLE     LGT RAIN  74  73  97 VRB3      29.92F FOG
BEAVER COUNTY  CLOUDY    73  72  94 SW7       29.94R FOG
BUTLER*        CLOUDY    73  70  88 S3        29.92F
PITTSBURGH INT TSTM      77  72  84 SW6       29.94R
PITTSBURGH     PTSUNNY   77  70  79 S9        29.92F
INDIANA*       CLOUDY    75  73  94 SW7       29.97F FOG
LATROBE        PTSUNNY   79  73  83 SW7       29.95F
WASHINGTON CO* CLOUDY    73  70  88 SW8G16    29.97R
$$

PAZ004>006-010>012-017>019-024>028-033>037-041-042-045-046-049>053-221500-
CENTRAL PENNSYLVANIA

CITY           SKY/WX    TMP DP  RH WIND       PRES   REMARKS
BRADFORD       MOSUNNY   72  67  84 VRB3      29.97F
DUBOIS         CLOUDY    73  68  84 S6        29.95F HAZE
CLEARFIELD     CLOUDY    73  70  90 CALM      29.97F
JOHNSTOWN      CLOUDY    71  68  90 S9        30.00F FOG
ALTOONA        CLOUDY    77  71  82 SW7       29.98F
STATE COLLEGE  PTSUNNY   75  70  83 CALM      29.97R
WILLIAMSPORT   CLOUDY    77  70  79 W5        29.92F
SELINSGROVE    SUNNY     79  70  74 CALM      29.93S
FT INDIANTOWN  SUNNY     81  70  69 CALM      29.92S
CAPITAL CITY   SUNNY     84  66  54 S3        29.92S
HARRISBURG     CLOUDY    83  69  62 W5        29.91S
YORK           CLOUDY    82  71  69 CALM      29.92S
$$

PAZ038>040-043-044-047-048-054-055-060>062-067>071-221500-
EASTERN PENNSYLVANIA

CITY           SKY/WX    TMP DP  RH WIND       PRES   REMARKS
SCRANTON       MOSUNNY   79  65  62 W3        29.94F
MOUNT POCONO   CLOUDY    73  63  70 NW3       29.98F
ALLENTOWN      SUNNY     82  66  58 VRB5      29.92S
QUAKERTOWN*    SUNNY     81  66  61 NE3       29.93S
READING        SUNNY     82  71  69 N6        29.90F
LANCASTER      SUNNY     84  72  67 E7        29.91F
COATESVILLE    CLOUDY    81  70  69 CALM      29.94S
POTTSTOWN      SUNNY     81  67  62 VRB6      29.93S
BLUE BELL      SUNNY     81  68  65 CALM      29.92S
DOYLESTOWN     SUNNY     82  66  58 E5        29.91S
WILLOW GROVE   NOT AVBL
NORTH PHILA    SUNNY     86  69  56 N6        29.91S
PHILADELPHIA   PTSUNNY   86  67  52 E9        29.89F
$$



USA.gov is the U.S. government's official web portal to all federal, state and local government web resources and services.